Погода в Анькове

Россия / Ивановская область     56°56′19″N   39°57′26″E
темп.,
°C
ветер,
м/с
пор.,
м/с
влажн.,
%
обл.,
%
осадки,
мм/ч
давл.,
гПа
погр.,
м
25 февраля, чт
чт2500:00−15ю51094100 0.4 1027431
03:00−14ю51095100 1.9 1023402
06:00−13ю61195100 2.6 1016419
09:00−10ю51195100 4.7 1012363
12:00−4ююв3398100 1.7 101090
15:00+1сз26100100 2.1 1010196
18:00+1сз31099100 0.1 1011304
21:00+1зсз41099100 0.3 1012322
26 февраля, пт
пт2600:000з3797100 0.0 1011194
03:000юз2299100 0.1 101054
06:00+1юз23100100 0.6 100767
09:00+1ююз37100100 1.8 1005182
12:00+2юз411100100 2.8 1001329
15:00+2зюз615100100 5.2 999651
18:00+2з6149499 0.4 997760
21:00+1з61297100 0.5 996685
27 февраля, сб
сб2700:000зсз71497100 0.8 995857
03:00+1зсз71397100 1.4 995861
06:000сз51097100 0.6 995530
09:00−8ссз61192100 0.9 998509
12:00−9с6992100 0.3 1001645
15:00−10с61089100 0.4 1004703
18:00−11с51191100 0.1 1008634
21:00−13с41092100 0.1 1011481
28 февраля, вс
вс2800:00−15с499587 0.0 1013274
03:00−16с399672 0.0 1015236
06:00−18ссз379721 0.0 1016164
09:00−16ссз379419 0.0 1018261
12:00−12ссз369277 0.0 1018403
15:00−9ссз479189 0.1 1019505
18:00−11ссз3396100 0.0 102063
21:00−12сз349794 0.1 102269
1 марта, пн
пн100:00−12ссз239792 0.1 102368
03:00−8зсз129696 0.1 102436
06:00−8з239799 0.1 102449
09:00−7з359582 0.1 1024146
12:00−3з369492 0.1 1024364
15:00−1з479594 0.1 1023407
18:00−1з5119499 0.1 1021579
21:000з6139199 0.1 1019767